Regional Weather Roundup
Issued by NWS Jackson, KY

Home | Current Version | Previous Version | Graphics & Text | Print | Product List | Glossary On
Versions: 1 2 3 4 5 6 7 8 9 10 11 12 13 14 15 16 17 18 19 20 21 22 23 24 25 26 27
000
ASUS43 KJKL 160310
RWRJKL

EAST KENTUCKY HOURLY WEATHER ROUNDUP
NATIONAL WEATHER SERVICE JACKSON KY
1000 PM EST MON JAN 15 2018

NOTE: "FAIR" INDICATES FEW OR NO CLOUDS BELOW 12,000 FEET WITH
NO SIGNIFICANT WEATHER AND/OR OBSTRUCTIONS TO VISIBILITY.

* THESE REPORTS ARE NOT UNDER NWS QUALITY CONTROL AND MAY NOT
  REPORT WEATHER SUCH AS PRECIPITATION AND FOG.

KYZ079-080-083-085-087-088-110-112-115-119-120-160400
...EASTERN KENTUCKY...

CITY           SKY/WX    TMP DP  RH WIND       PRES   REMARKS
JACKSON        FLURRIES  33  30  88 VRB3      30.30S
LONDON         MOCLDY    36  27  69 S3        30.32R
SOMERSET*      MOCLDY    32  27  80 N6        30.37R WCI  26
MONTICELLO*      N/A     32  28  85 NW7       30.38R WCI  26
WILLIAMSBURG*    N/A     36  23  60 CALM      30.32S
MIDDLESBORO*     N/A     30  25  84 CALM      30.35S
HARLAN APT*      N/A     32  23  69 CALM      30.32S
PIKE CO APT*     N/A     33  22  63 CALM      30.30S
BIG SANDY APT* CLOUDY    36  22  58 SW3       30.31S
MOREHEAD APT*  LGT SNOW  30  27  86 W5        30.36R WCI  25
ASHLAND*       CLOUDY    33  27  78 NW6       30.35R WCI  28
$$

KYZ035-036-041-042-044-050-067-078-099-160400
...CENTRAL KENTUCKY...

CITY           SKY/WX    TMP DP  RH WIND       PRES   REMARKS
MT STERLING*   CLOUDY    30  28  93 NW6       30.36R WCI  24
FLEMING/MASON* CLOUDY    28  25  87 W12       30.36R WCI  18
DANVILLE*      CLOUDY    30  27  86 NW5       30.37R WCI  25
LEXINGTON      LGT SNOW  29  24  82 W6        30.36R WCI  23
FRANKFORT      LGT SNOW  29  24  82 W8        30.35R WCI  21
LOUISVILLE     LGT SNOW  21  15  78 NW13      30.44R WCI   9
LEBANON*         N/A     28  27  93 W5        30.37S WCI  23
GLASGOW*       CLOUDY    30  28  94 CALM      30.38S
BOWLING GREEN  LGT SNOW  27  24  89 NW8       30.42R FOG     WCI  19
$$

KYZ091>093-OHZ055-061-077-WVZ005-015-034-035-042-160400
...SOUTHERN OHIO/WEST VIRGINIA...

CITY           SKY/WX    TMP DP  RH WIND       PRES   REMARKS
COVINGTON      LGT SNOW  27  26  96 SW7       30.33R FOG     WCI  19
COLUMBUS       FLURRIES  28  23  81 W9        30.31S WCI  19
DAYTON         FLURRIES  25  23  92 SW7       30.30R WCI  17
WILMINGTON     LGT SNOW  26  25  96 SW9       30.30R FOG     WCI  17
HUNTINGTON     CLOUDY    35  24  64 NW5       30.32R WCI  31
CHARLESTON     MOCLDY    32  24  72 W3        30.31R
BECKLEY          N/A     29  20  69 S6        30.27S WCI  23
BLUEFIELD        N/A     31  20  63 SW5       30.28R WCI  26
LOGAN CO APT*  MOCLDY    34  21  60 CALM      30.29R
$$

VAZ002-007-008-TNZ017-027-036-066-071-160400
...SOUTHWEST VIRGINIA/EAST TENNESSEE...

CITY           SKY/WX    TMP DP  RH WIND       PRES   REMARKS
WISE*            N/A     32  23  69 SW3       30.30R
JONESVILLE*      N/A     28  25  86 CALM      30.36S
ABINGDON*        N/A     31  26  81 CALM      30.33S
BRISTOL          N/A     27  24  89 CALM      30.35S
MORRISTOWN*    MOCLDY    30  23  74 CALM      30.34S
SEVIERVILLE*   PTCLDY    28  25  86 CALM      30.36S
KNOXVILLE        N/A     35  22  58 SW6       30.35S WCI  30
LAFOLLETTE*    PTCLDY    32  25  74 CALM      30.36F
OAK RIDGE        N/A     31  24  75 CALM      30.37R
CROSSVILLE       N/A     35  19  52 VRB5      30.32R WCI  31
NASHVILLE      CLOUDY    34  28  79 NW10      30.39R WCI  26
$$

...KEY TO REMARKS...
VSB - VISIBILITY IN MILES
WCI - WIND CHILL INDEX
HX  - HEAT INDEX

$$




USA.gov is the U.S. government's official web portal to all federal, state and local government web resources and services.